Regional Weather Roundup
Issued by NWS

Home | Current Version | Previous Version | Graphics & Text | Print | Product List | Glossary On
Versions: 1 2 3 4 5 6 7 8 9 10 11 12 13 14 15 16 17 18 19 20 21 22 23 24 25 26 27 28 29 30 31 32 33 34 35 36 37 38 39 40 41 42 43 44 45 46 47 48 49 50
000
ASUS43 KFSD 031410
RWRSD

WEATHER ROUNDUP FOR SOUTH DAKOTA
NATIONAL WEATHER SERVICE SIOUX FALLS SD
900 AM CDT SUN MAY 03 2015

NOTE: "FAIR" INDICATES FEW OR NO CLOUDS BELOW 12,000 FEET WITH NO
SIGNIFICANT WEATHER AND/OR OBSTRUCTIONS TO VISIBILITY.


SDZ001>005-009-010-012>017-031500-
NORTHWEST AND NORTH CENTRAL SOUTH DAKOTA

CITY           SKY/WX    TMP DP  RH WIND       PRES   REMARKS
BUFFALO          N/A     52  37  56 NE14      29.92R
FAITH            N/A     53  36  52 N22G30    29.92R
MOBRIDGE       SUNNY     58  38  47 N23G32    29.86R
$$

SDZ012>016-024>037-041>051-057-063-072>074-031500-
SOUTHWEST AND SOUTH CENTRAL SOUTH DAKOTA

CITY           SKY/WX    TMP DP  RH WIND       PRES   REMARKS
RAPID CTY ARPT PTSUNNY   56  36  47 N21       29.95R
PIERRE         SUNNY     60  37  42 N25G38    29.80R
CUSTER         SUNNY     50  32  50 N15G24    29.98R
ELLSWORTH AFB  MOSUNNY   55  36  49 N22       29.95R
PHILIP         PTSUNNY   58  36  43 N24G35    29.87R
PINE RIDGE     MOSUNNY   53  34  48 VRB6G20   29.91R
SPEARFISH      FAIR      54  36  50 SE6       30.00R
WINNER         FAIR      60  40  47 NW10      29.78R
$$

SDZ004>011-016>023-039-040-031500-
NORTHEAST SOUTH DAKOTA

CITY           SKY/WX    TMP DP  RH WIND       PRES   REMARKS
ABERDEEN       SUNNY     60  40  47 N24G31    29.83R
WATERTOWN      SUNNY     63  54  72 N14       29.78R
BROOKINGS      MOSUNNY   66  55  68 CALM      29.75R
SISSETON         N/A     61  46  57 N21       29.79R
$$

SDZ017-020-022-023-036>040-048>070-031500-
SOUTHEAST SOUTH DAKOTA

CITY           SKY/WX    TMP DP  RH WIND       PRES   REMARKS
SIOUX FALLS    PTSUNNY   65  55  70 E5        29.75R
HURON          MOSUNNY   58  46  64 N14       29.74R
CHAMBERLAIN    MOSUNNY   60  42  51 N10       29.75R
MITCHELL       SUNNY     66  55  67 CALM      29.73R
YANKTON        SUNNY     66  54  63 S9        29.72S
$$

ABBREVIATIONS USED IN REMARKS
   TC - TEMPERATURE IN CELSIUS
  WCI - WIND CHILL INDEX
   HX - HEAT INDEX
  VSB - VISIBILITY



USA.gov is the U.S. government's official web portal to all federal, state and local government web resources and services.